FW8055 Weather Reports


time (UTC)temp
F
wind
direction
speed
knots
gust
knots
rain 1hr
in
rain 24hr
in
rain mn
in
humidity
%
barometer
mb
20260906151554 55 0 0.0 0.0 0.01 0.02 0.02 93 1017.4
20260906150059 55 0 0.0 0.0 0.01 0.02 0.02 92 1017.4
20260906144601 56 0 0.0 0.0 0.02 0.02 0.02 91 1017.3
20260906143057 56 0 0.0 0.0 0.02 0.02 0.02 91 1017.3
20260906141616 56 0 0.0 0.0 0.01 0.01 0.01 90 1017.3
20260906140108 56 0 0.0 0.0 0.01 0.01 0.01 89 1016.9
20260906134610 57 0 0.0 0.0 0.00 0.00 0.00 90 1016.6
20260906133056 57 0 0.0 0.0 0.00 0.00 0.00 89 1016.3
20260906131551 57 0 0.0 0.0 0.00 0.00 0.00 90 1016.0
20260906130105 56 0 0.0 0.0 0.00 0.00 0.00 91 1016.0
20260906124558 56 0 0.0 0.0 0.00 0.00 0.00 92 1016.0
20260906123054 56 0 0.0 0.0 0.00 0.00 0.00 92 1015.9
20260906121550 56 0 0.0 0.9 0.00 0.00 0.00 91 1015.7
20260906120104 56 0 0.0 0.0 0.00 0.00 0.00 91 1015.7
20260906114611 57 0 0.0 0.0 0.00 0.00 0.00 91 1015.8
20260906113054 57 0 0.0 0.0 0.00 0.00 0.00 91 1015.8
20260906111605 57 0 0.0 0.0 0.00 0.00 0.00 92 1015.8
20260906110053 57 0 0.0 0.0 0.00 0.00 0.00 91 1015.9
20260906104554 57 0 0.0 0.0 0.00 0.00 0.00 91 1015.8
20260906103056 57 0 0.0 0.0 0.00 0.00 0.00 91 1016.0
20260906101554 57 0 0.0 0.0 0.00 0.00 0.00 91 1015.9
20260906100052 57 0 0.0 0.0 0.00 0.00 0.00 91 1015.9
20260906094601 57 0 0.0 0.0 0.00 0.00 0.00 90 1015.8
20260906093102 57 0 0.0 0.0 0.00 0.00 0.00 90 1015.7
20260906091555 58 0 0.0 0.0 0.00 0.00 0.00 90 1015.8
20260906090109 58 0 0.0 0.0 0.00 0.00 0.00 90 1015.9
20260906084556 58 0 0.0 0.0 0.00 0.00 0.00 90 1015.9
20260906083057 58 0 0.0 0.0 0.00 0.00 0.00 90 1016.0
20260906081556 58 0 0.0 0.0 0.00 0.00 0.00 89 1016.0
20260906080055 58 0 0.0 0.0 0.00 0.00 0.00 89 1015.8
20260906074555 58 0 0.0 0.0 0.00 0.00 0.00 88 1015.9
20260906073107 58 0 0.0 0.0 0.00 0.00 0.00 88 1015.9
20260906071556 59 0 0.0 0.0 0.00 0.00 0.00 87 1015.8
20260906070105 59 0 0.0 0.0 0.00 0.00 0.00 86 1015.6
20260906064555 60 0 0.0 0.0 0.00 0.00 0.00 85 1015.6
20260906063055 60 0 0.0 0.0 0.00 0.00 0.00 84 1015.7
20260906061620 60 0 0.0 0.0 0.00 0.00 0.00 83 1015.9
20260906060104 61 0 0.0 0.0 0.00 0.00 0.00 82 1015.8
20260906054557 61 0 0.0 0.0 0.00 0.00 0.00 81 1015.9
20260906053056 61 0 0.0 0.9 0.00 0.00 0.00 80 1015.9
20260906051556 62 0 0.0 0.9 0.00 0.00 0.00 79 1016.0
20260906050110 62 0 0.0 1.7 0.00 0.00 0.00 78 1016.0
20260906044552 62 0 0.0 0.9 0.00 0.00 0.00 77 1016.0
20260906043110 63 0 0.0 1.7 0.00 0.00 0.00 76 1016.1
20260906041554 63 263 0.0 1.7 0.00 0.00 0.00 76 1016.0
20260906040112 63 0 0.0 3.5 0.00 0.00 0.00 74 1016.0
20260906034551 64 0 0.0 1.7 0.00 0.04 0.00 73 1016.0
20260906033101 64 0 0.0 0.9 0.00 0.04 0.00 73 1015.8
20260906031601 64 0 0.0 0.0 0.00 0.04 0.00 72 1015.6
20260906024601 66 0 0.0 0.0 0.00 0.06 0.00 67 1015.3
20260906023115 66 0 0.0 2.6 0.00 0.06 0.00 65 1015.3
20260906021554 67 0 0.0 4.3 0.00 0.06 0.00 63 1015.4
20260906020101 68 346 0.9 4.3 0.00 0.06 0.00 60 1015.4
20260906014623 68 344 0.0 2.6 0.00 0.07 0.00 59 1015.3
20260906013057 68 0 0.0 0.0 0.00 0.07 0.00 60 1015.3
20260906011556 68 0 0.0 1.7 0.00 0.07 0.00 57 1015.1
20260906010051 69 0 0.0 3.5 0.00 0.07 0.00 53 1015.1
20260906004611 69 36 0.0 2.6 0.00 0.13 0.00 54 1015.1
20260906003058 69 0 0.0 2.6 0.00 0.13 0.00 56 1015.2
20260906001555 70 0 0.0 2.6 0.00 0.13 0.00 53 1015.2
20260906000059 69 352 0.0 3.5 0.00 0.13 0.00 54 1015.1
20260905234601 69 59 0.9 3.5 0.00 0.18 0.00 54 1015.1
20260905233057 70 0 0.0 3.5 0.00 0.18 0.00 53 1015.2
20260905231556 70 351 0.0 4.3 0.00 0.18 0.00 54 1015.4
20260905230108 69 0 0.9 3.5 0.00 0.18 0.00 55 1015.6
20260905224605 68 247 0.0 1.7 0.00 0.28 0.00 58 1015.7
20260905223055 68 0 0.0 3.5 0.00 0.28 0.00 57 1015.9
20260905221603 68 0 0.0 1.7 0.00 0.28 0.00 58 1016.0
20260905220109 69 0 0.9 5.2 0.00 0.28 0.00 57 1015.9
20260905214557 69 0 0.9 4.3 0.00 0.34 0.00 55 1016.0
20260905213052 69 0 0.0 2.6 0.00 0.34 0.00 58 1016.2
20260905211556 69 29 0.0 3.5 0.00 0.34 0.00 59 1016.4
20260905210052 69 0 0.0 3.5 0.00 0.34 0.00 59 1016.5
20260905204550 67 0 0.0 2.6 0.00 0.34 0.00 63 1016.7
20260905203100 66 0 0.9 2.6 0.00 0.34 0.00 66 1016.6
20260905201556 66 27 0.0 1.7 0.00 0.34 0.00 68 1016.6
20260905200057 65 0 0.0 2.6 0.00 0.34 0.00 67 1016.7
20260905194549 65 0 0.9 2.6 0.00 0.34 0.00 70 1017.1
20260905193056 64 236 0.9 2.6 0.00 0.34 0.00 75 1017.3
20260905191552 63 0 0.0 0.0 0.00 0.34 0.00 74 1017.3
20260905190101 63 0 0.0 2.6 0.00 0.34 0.00 74 1017.3
20260905184600 63 17 0.0 1.7 0.00 0.34 0.00 75 1017.4
20260905183112 62 352 0.0 2.6 0.00 0.34 0.00 77 1017.5
20260905181603 62 0 0.0 2.6 0.00 0.34 0.00 82 1017.5
20260905180052 61 0 0.0 1.7 0.00 0.34 0.00 85 1017.5
20260905174556 59 0 0.0 0.0 0.00 0.35 0.00 89 1017.6
20260905173103 58 0 0.0 1.7 0.00 0.35 0.00 91 1017.6
20260905171556 56 341 0.0 0.9 0.00 0.35 0.00 92 1017.6
20260905164605 55 0 0.0 2.6 0.00 0.38 0.00 95 1017.5
20260905163055 55 0 0.0 1.7 0.00 0.38 0.00 96 1017.4
20260905161602 54 0 0.0 0.9 0.00 0.38 0.00 96 1017.4
20260905160116 54 0 0.0 0.9 0.00 0.38 0.00 96 1017.5
20260905154554 53 0 0.0 1.7 0.00 0.38 0.00 96 1017.7
20260905153111 52 0 0.0 1.7 0.00 0.38 0.00 96 1017.8